THOR ABLESTAR DEB, 3592

Orbit data source: Space-Track

THOR ABLESTAR DEB, 3592 is space debris in LEO originally from a launch on Thu, 24 Jun 1965 UTC launched from the Air Force Western Test Range (AFWTR). Debris objects in space refer to the collection of defunct objects orbiting the Earth. Examples of debris include non-operational satellites, rocket bodies, and fragments generated from explosions, collisions, or faulty payload assembly.

Loading next visibility...
Identifier
3592, 1965-048F
Orbit
LEO
Country
Flag of USUS
Related business
Manufacturer
Unknown
Mission
Spacecraft
Bus & Motor
Unknown
Mass
Unknown
Launch date (UTC)
1965-06-24 (60 years ago)
Launch vehicle
Unknown
Launch site
Air Force Western Test Range (AFWTR)
Object type
Payload
Rocket body
Debris
Shape & HBR
Unknown shape, 0.1 m
Radar Cross Section
Small (<0.1 m²)

Expand to show TLE details & history
Last TLE update: 21 hours ago

TLE from 21 hours ago
0 THOR ABLESTAR DEB
1 03592U 65048F   25309.91997971  .00000345  00000-0  42720-3 0  9993
2 03592  89.8761 290.5737 0058774 260.6756 127.5226 13.62572350989562
Epoch: 2025-11-05T22:04Z
TLE epoch observation values (Epoch: 2025-11-05T22:04:46.246Z)
Latitude
28.7723°
Longitude
-85.93704°
Altitude
1,056.661 km
Speed
7.313 km/s
True Right ascension
19h 22m 33s
True Declination
28° 37' 60"
Sunlit
Object was in daylight at epoch
Visualization orbit readout
Latitude
Unknown
Longitude
Unknown
Altitude
Unknown
Speed
Unknown
Apparent Right ascension
Unknown
Apparent Declination
Unknown
Sunlit
N/A
Visualization observer readout
Local Sidereal Time
14:50:54
Azimuth
Unknown
Elevation
Unknown
Doppler factor
Unknown
Orbital elements
Apogee altitude
1,066.891 km
Perigee altitude
979.888 km
Semi-major axis
7,401.527 km
Eccentricity
0.00588
Inclination
89.8761°
RAAN
290.5737°
Arg. of periapsis
260.6756°
True anomaly
128.05437°
Mean anomaly
127.5226°
Eccentric anomaly
127.78873°
Mean motion
3.40848 °/min
Orbital period
105.62 mins
BSTAR
0.0004272
Loading maneuver chart data...
Computing Atmospheric mass density...

Documentation

Showing up to 5 results
|